Weather in Kuzminichi

Russia / Kaluga Oblast     54°14′19″N   33°43′02″E
temp.,
°C
wind,
m/s
gust,
m/s
humid.,
%
clouds,
%
prec.,
mm/h
press.,
hPa
HPBL,
m
1 august, sun
sun100:00+17sw1173100 0.0 101011
03:00+16sse2275100 0.0 101021
06:00+16s249091 0.3 101093
09:00+18s2489100 0.9 1010199
12:00+20s2486100 0.1 1010194
15:00+21wsw257898 0.1 1010274
18:00+23wsw25745 0.7 1010521
21:00+19w0187100 0.8 101011
2 august, mon
mon200:00+18se229299 0.0 101021
03:00+17ese22955 0.1 100823
06:00+17se269845 0.6 1008177
09:00+22s4781100 0.6 1007408
12:00+26s6964100 0.0 1005861
15:00+29s61051100 0.0 10031599
18:00+21s81570100 0.7 1003475
21:00+18s51094100 1.7 1004312
3 august, tue
tue300:00+16ssw4109986 1.8 1005391
03:00+17wnw4897100 2.2 1005480
06:00+15wnw31095100 0.0 1008537
09:00+16w4787100 0.0 1009531
12:00+20w567165 0.6 10101221
15:00+23w484595 1.9 10102215
18:00+21w4851100 0.0 10102028
21:00+15sw25765 0.0 101287
4 august, wed
wed400:00+13wsw37795 0.0 1014124
03:00+12w23870 0.0 101564
06:00+12wsw24934 0.0 101693
09:00+18w23705 0.0 1016590
12:00+20w3472100 1.5 10161127
15:00+20w347496 4.2 10161042
18:00+20wnw23695 0.6 1016812
21:00+15sse1186100 1.7 101711
5 august, thu
thu500:00+14se118925 0.0 101811
03:00+13se119266 0.0 101811
06:00+13se1193100 0.1 101827
09:00+18se2380100 0.1 1017274
12:00+18sse138399 0.9 1017145
15:00+19ssw4665100 1.2 1017760
18:00+16ese2383100 0.1 1017150
21:00+15ese248785 0.1 1016101